Hourly Data Report for July 23, 2021

TORONTO CITY CENTRE
ONTARIO
Current Station Operator: NAVCAN

43°37'39.000" N
79°23'46.000" W
76.80 m
6158359
71265
YTZ

Download Data

Hourly Data (July 2021)
Hourly Data Report for July 23, 2021
TIME
LST
Temp Definition
°C
Dew Point Definition
°C
Rel Hum Definition
%
Precip. Amount Definition
mm

Wind Dir Definition
10's deg

Wind Spd Definition
km/h
Visibility Definition
km
Stn Press Definition
kPa
Hmdx Definition


Wind Chill Definition


Weather Definition


00:00 20.2 10.4 53 0.0 32 11 16.1 101.26     LegendNANA
01:00 19.8 11.4 58 0.0 32 8 16.1 101.25     LegendNANA
02:00 19.1 12.7 66 0.0 32 13 16.1 101.26     LegendNANA
03:00 18.5 12.6 68 0.0 34 8 16.1 101.26     LegendNANA
04:00 18.2 12.1 67 0.0 32 9 16.1 101.28     LegendNANA
05:00 16.1 11.7 75 0.0 32 5 16.1 101.30     LegendNANA
06:00 17.7 11.8 68 0.0 30 4 16.1 101.34     LegendNANA
07:00 19.4 13.1 67 0.0 LegendMM 4 16.1 101.35     LegendNANA
08:00 19.9 13.9 68 0.0 21 8 16.1 101.37     LegendNANA
09:00 20.5 13.9 65 0.0 21 9 16.1 101.37     LegendNANA
10:00 21.5 13.7 61 0.0 18 11 16.1 101.33 25   LegendNANA
11:00 21.8 14.6 63 0.0 16 15 16.1 101.32 26   LegendNANA
12:00 22.4 15.3 64 0.0 18 17 16.1 101.28 27   LegendNANA
13:00 22.7 14.7 60 0.0 18 17 16.1 101.25 26   LegendNANA
14:00 23.5 13.5 53 0.0 16 11 16.1 101.21 27   LegendNANA
15:00 23.9 13.7 52 0.0 13 15 16.1 101.16 27   LegendNANA
16:00 24.3 15.4 57 0.0 12 13 16.1 101.11 29   LegendNANA
17:00 24.3 14.9 55 0.0 12 15 16.1 101.05 28   LegendNANA
18:00 23.8 14.7 56 0.0 13 13 16.1 101.01 28   LegendNANA
19:00 22.7 15.2 62 0.0 14 9 16.1 101.00 27   LegendNANA
20:00 21.9 16.5 71 0.0 13 9 16.1 100.98 27   LegendNANA
21:00 21.6 17.1 75 0.0 14 8 16.1 101.02 27   LegendNANA
22:00 20.9 18.5 86 0.0 22 8 16.1 101.03 27   LegendNANA
23:00 20.7 17.6 82 0.0 22 5 16.1 101.03 26   LegendNANA

Notes on Data Quality.

Legend

  • E = Estimated
  • M = Missing
  • NA = Not Available*
  • [empty] = Indicates an unobserved value
Date modified: